Wetterdaten: Sonntag, 10.01.2016
Datum Zeit Auen-Temp. Temp gefhlt Luftfeuchte Luftdruck Regen Wind Richtung Richtung Taupunkt Windben
10.01.2016 00:00 2,8 C 2,3 C 96 % 1003,3 hPa 0,0 mm 6,5 km/h (2 Bft) W-SW 247 2,2 C 8,5 km/h (2 Bft)
10.01.2016 00:05 2,7 C 2,2 C 96 % 1003,3 hPa 0,0 mm 7,5 km/h (2 Bft) W-SW 247 2,1 C 5,4 km/h (1 Bft)
10.01.2016 00:10 2,7 C 2,4 C 96 % 1003,3 hPa 0,0 mm 6,0 km/h (2 Bft) S-SW 202 2,1 C 5,7 km/h (1 Bft)
10.01.2016 00:15 2,6 C 2,5 C 96 % 1003,3 hPa 0,0 mm 3,6 km/h (1 Bft) SW 225 2,0 C 0,0 km/h (0 Bft)
10.01.2016 00:20 2,8 C 2,6 C 96 % 1003,3 hPa 0,0 mm 1,0 km/h (0 Bft) S 180 2,2 C 0,0 km/h (0 Bft)
10.01.2016 00:25 2,8 C 2,6 C 96 % 1003,3 hPa 0,0 mm 0,0 km/h (0 Bft) S 180 2,2 C 0,0 km/h (0 Bft)
10.01.2016 00:30 2,7 C 2,5 C 96 % 1003,3 hPa 0,0 mm 0,0 km/h (0 Bft) S-SO 157 2,1 C 0,0 km/h (0 Bft)
10.01.2016 00:35 2,6 C 2,4 C 96 % 1003,3 hPa 0,0 mm 0,0 km/h (0 Bft) SO 135 2,0 C 0,0 km/h (0 Bft)
10.01.2016 00:40 2,4 C 2,2 C 96 % 1003,1 hPa 0,0 mm 0,0 km/h (0 Bft) W-SW 247 1,8 C 2,6 km/h (1 Bft)
10.01.2016 00:45 2,4 C 2,2 C 96 % 1003,1 hPa 0,0 mm 0,0 km/h (0 Bft) S 180 1,8 C 0,0 km/h (0 Bft)
10.01.2016 00:50 2,3 C 2,0 C 96 % 1003,1 hPa 0,0 mm 0,0 km/h (0 Bft) O-NO 67 1,7 C 0,0 km/h (0 Bft)
10.01.2016 00:55 2,1 C 1,9 C 96 % 1003,1 hPa 0,0 mm 0,0 km/h (0 Bft) NO 45 1,5 C 0,0 km/h (0 Bft)
10.01.2016 01:00 1,8 C 1,6 C 96 % 1002,7 hPa 0,0 mm 0,0 km/h (0 Bft) N-NO 22 1,2 C 0,0 km/h (0 Bft)
10.01.2016 01:05 1,9 C 1,7 C 96 % 1002,7 hPa 0,0 mm 0,0 km/h (0 Bft) NO 45 1,3 C 0,0 km/h (0 Bft)
10.01.2016 01:10 1,9 C 1,7 C 96 % 1002,7 hPa 0,0 mm 0,0 km/h (0 Bft) NO 45 1,3 C 0,0 km/h (0 Bft)
10.01.2016 01:15 2,1 C 1,9 C 95 % 1002,7 hPa 0,0 mm 0,0 km/h (0 Bft) N-NO 22 1,4 C 0,0 km/h (0 Bft)
10.01.2016 01:20 2,2 C 2,0 C 95 % 1002,5 hPa 0,0 mm 0,0 km/h (0 Bft) SO 135 1,5 C 0,0 km/h (0 Bft)
10.01.2016 01:25 2,1 C 1,9 C 95 % 1002,5 hPa 0,0 mm 0,0 km/h (0 Bft) O 90 1,4 C 0,0 km/h (0 Bft)
10.01.2016 01:30 2,2 C 1,9 C 96 % 1002,5 hPa 0,0 mm 0,0 km/h (0 Bft) O-NO 67 1,6 C 0,0 km/h (0 Bft)
10.01.2016 01:35 2,1 C 1,8 C 95 % 1002,5 hPa 0,0 mm 0,0 km/h (0 Bft) O-NO 67 1,4 C 0,0 km/h (0 Bft)
10.01.2016 01:40 2,1 C 1,8 C 96 % 1002,5 hPa 0,0 mm 0,0 km/h (0 Bft) O-NO 67 1,5 C 0,0 km/h (0 Bft)
10.01.2016 01:45 1,8 C 1,5 C 96 % 1002,5 hPa 0,0 mm 0,0 km/h (0 Bft) SO 135 1,2 C 0,0 km/h (0 Bft)
10.01.2016 01:50 1,6 C 1,3 C 96 % 1002,5 hPa 0,0 mm 0,0 km/h (0 Bft) N-NO 22 1,0 C 0,0 km/h (0 Bft)
10.01.2016 01:55 1,3 C 1,0 C 96 % 1002,5 hPa 0,0 mm 0,3 km/h (0 Bft) N-NO 22 0,7 C 3,1 km/h (1 Bft)
10.01.2016 02:00 1,1 C 0,8 C 96 % 1002,5 hPa 0,0 mm 0,3 km/h (0 Bft) NO 45 0,5 C 0,0 km/h (0 Bft)
10.01.2016 02:05 0,8 C 0,6 C 96 % 1002,5 hPa 0,0 mm 0,0 km/h (0 Bft) N-NW 337 0,2 C 0,0 km/h (0 Bft)
10.01.2016 02:10 0,9 C 0,5 C 96 % 1002,5 hPa 0,0 mm 0,0 km/h (0 Bft) NO 45 0,3 C 0,0 km/h (0 Bft)
10.01.2016 02:15 0,6 C 0,3 C 96 % 1002,5 hPa 0,0 mm 0,0 km/h (0 Bft) N-NO 22 0,0 C 0,0 km/h (0 Bft)
10.01.2016 02:20 0,5 C 0,1 C 96 % 1002,3 hPa 0,0 mm 0,0 km/h (0 Bft) N-NW 337 -0,1 C 0,0 km/h (0 Bft)
10.01.2016 02:25 1,2 C 0,7 C 96 % 1002,3 hPa 0,0 mm 0,0 km/h (0 Bft) O 90 0,6 C 0,0 km/h (0 Bft)
10.01.2016 02:30 1,3 C 0,8 C 96 % 1002,3 hPa 0,0 mm 0,0 km/h (0 Bft) O 90 0,7 C 0,0 km/h (0 Bft)
10.01.2016 02:35 1,1 C 0,6 C 96 % 1002,3 hPa 0,0 mm 0,0 km/h (0 Bft) O 90 0,5 C 0,0 km/h (0 Bft)
10.01.2016 02:40 1,2 C 0,8 C 90 % 1002,3 hPa 0,0 mm 0,0 km/h (0 Bft) O 90 -0,3 C 0,0 km/h (0 Bft)
10.01.2016 02:45 0,9 C 0,5 C 96 % 1002,3 hPa 0,0 mm 0,0 km/h (0 Bft) O-NO 67 0,3 C 0,0 km/h (0 Bft)
10.01.2016 02:50 0,6 C 0,2 C 96 % 1002,3 hPa 0,0 mm 0,0 km/h (0 Bft) O-NO 67 0,0 C 0,0 km/h (0 Bft)
10.01.2016 02:55 0,5 C 0,1 C 96 % 1002,3 hPa 0,0 mm 0,0 km/h (0 Bft) W-NW 292 -0,1 C 0,0 km/h (0 Bft)
10.01.2016 03:00 0,3 C -0,1 C 96 % 1002,2 hPa 0,0 mm 0,0 km/h (0 Bft) W-SW 247 -0,3 C 0,0 km/h (0 Bft)
10.01.2016 03:05 0,1 C -0,3 C 96 % 1002,2 hPa 0,0 mm 0,0 km/h (0 Bft) NW 315 -0,5 C 0,0 km/h (0 Bft)
10.01.2016 03:10 0,2 C -0,3 C 96 % 1002,2 hPa 0,0 mm 0,0 km/h (0 Bft) O-NO 67 -0,4 C 0,0 km/h (0 Bft)
10.01.2016 03:15 0,5 C 0,0 C 96 % 1002,2 hPa 0,0 mm 0,3 km/h (0 Bft) N-NW 337 -0,1 C 4,9 km/h (1 Bft)
10.01.2016 03:20 0,8 C 0,4 C 96 % 1002,1 hPa 0,0 mm 1,0 km/h (0 Bft) NO 45 0,2 C 0,0 km/h (0 Bft)
10.01.2016 03:25 0,7 C 0,4 C 96 % 1002,1 hPa 0,0 mm 0,5 km/h (0 Bft) N-NO 22 0,1 C 0,0 km/h (0 Bft)
10.01.2016 03:30 0,8 C 0,6 C 96 % 1002,1 hPa 0,0 mm 0,0 km/h (0 Bft) O-SO 112 0,2 C 0,0 km/h (0 Bft)
10.01.2016 03:35 0,8 C 0,6 C 96 % 1002,1 hPa 0,0 mm 0,0 km/h (0 Bft) O-SO 112 0,2 C 0,0 km/h (0 Bft)
10.01.2016 03:40 1,0 C 0,8 C 96 % 1001,9 hPa 0,0 mm 0,0 km/h (0 Bft) O-SO 112 0,4 C 0,0 km/h (0 Bft)
10.01.2016 03:45 0,9 C 0,8 C 96 % 1001,9 hPa 0,0 mm 0,0 km/h (0 Bft) O-SO 112 0,3 C 0,0 km/h (0 Bft)
10.01.2016 03:50 1,1 C 1,0 C 90 % 1001,9 hPa 0,0 mm 0,0 km/h (0 Bft) O-NO 67 -0,4 C 0,0 km/h (0 Bft)
10.01.2016 03:51 1,0 C 0,9 C 96 % 1001,9 hPa 0,0 mm 0,0 km/h (0 Bft) N-NO 22 0,4 C 0,0 km/h (0 Bft)
10.01.2016 03:54 1,0 C 0,9 C 96 % 1001,9 hPa 0,0 mm 0,0 km/h (0 Bft) N-NO 22 0,4 C 0,0 km/h (0 Bft)
10.01.2016 03:55 1,0 C 0,9 C 96 % 1001,9 hPa 0,0 mm 0,0 km/h (0 Bft) N-NO 22 0,4 C 0,0 km/h (0 Bft)
10.01.2016 04:00 0,9 C 0,8 C 96 % 1001,7 hPa 0,0 mm 0,0 km/h (0 Bft) O-NO 67 0,3 C 0,0 km/h (0 Bft)
10.01.2016 04:05 1,0 C 0,7 C 96 % 1001,7 hPa 0,0 mm 0,0 km/h (0 Bft) N-NO 22 0,4 C 0,0 km/h (0 Bft)
10.01.2016 04:10 1,0 C 0,7 C 96 % 1001,7 hPa 0,0 mm 0,0 km/h (0 Bft) O 90 0,4 C 0,0 km/h (0 Bft)
10.01.2016 04:15 0,8 C 0,5 C 96 % 1001,7 hPa 0,0 mm 0,0 km/h (0 Bft) O 90 0,2 C 0,0 km/h (0 Bft)
10.01.2016 04:20 1,1 C 0,8 C 96 % 1001,6 hPa 0,0 mm 0,0 km/h (0 Bft) O-NO 67 0,5 C 0,0 km/h (0 Bft)
10.01.2016 04:25 1,4 C 1,2 C 96 % 1001,6 hPa 0,0 mm 0,0 km/h (0 Bft) O-SO 112 0,8 C 0,0 km/h (0 Bft)
10.01.2016 04:30 1,5 C 1,3 C 96 % 1001,6 hPa 0,0 mm 0,0 km/h (0 Bft) N-NW 337 0,9 C 0,0 km/h (0 Bft)
10.01.2016 04:35 1,8 C 1,7 C 91 % 1001,6 hPa 0,0 mm 0,0 km/h (0 Bft) SO 135 0,5 C 0,0 km/h (0 Bft)
10.01.2016 04:40 1,8 C 1,7 C 96 % 1001,8 hPa 0,0 mm 0,0 km/h (0 Bft) O 90 1,2 C 0,0 km/h (0 Bft)
10.01.2016 04:45 1,6 C 1,4 C 96 % 1001,8 hPa 0,0 mm 0,0 km/h (0 Bft) N 360 1,0 C 0,0 km/h (0 Bft)
10.01.2016 04:50 1,4 C 1,2 C 96 % 1001,8 hPa 0,0 mm 0,0 km/h (0 Bft) O-NO 67 0,8 C 0,0 km/h (0 Bft)
10.01.2016 04:55 0,9 C 0,8 C 96 % 1001,8 hPa 0,0 mm 0,0 km/h (0 Bft) NO 45 0,3 C 0,0 km/h (0 Bft)
10.01.2016 05:00 0,9 C 0,6 C 96 % 1001,5 hPa 0,0 mm 0,0 km/h (0 Bft) N-NO 22 0,3 C 0,0 km/h (0 Bft)
10.01.2016 05:05 0,7 C 0,5 C 96 % 1001,5 hPa 0,0 mm 0,0 km/h (0 Bft) O 90 0,1 C 0,0 km/h (0 Bft)
10.01.2016 05:10 0,6 C 0,3 C 96 % 1001,5 hPa 0,0 mm 0,0 km/h (0 Bft) N-NO 22 0,0 C 0,0 km/h (0 Bft)
10.01.2016 05:15 0,5 C 0,2 C 96 % 1001,5 hPa 0,0 mm 0,0 km/h (0 Bft) N 360 -0,1 C 0,0 km/h (0 Bft)
10.01.2016 05:20 0,6 C 0,3 C 96 % 1001,3 hPa 0,0 mm 0,0 km/h (0 Bft) W 270 0,0 C 0,0 km/h (0 Bft)
10.01.2016 05:25 0,9 C 0,5 C 96 % 1001,3 hPa 0,0 mm 0,0 km/h (0 Bft) W-SW 247 0,3 C 0,0 km/h (0 Bft)
10.01.2016 05:30 0,8 C 0,4 C 96 % 1001,3 hPa 0,0 mm 0,0 km/h (0 Bft) N-NO 22 0,2 C 0,0 km/h (0 Bft)
10.01.2016 05:35 0,7 C 0,4 C 96 % 1001,3 hPa 0,0 mm 0,0 km/h (0 Bft) O-SO 112 0,1 C 0,0 km/h (0 Bft)
10.01.2016 05:40 0,7 C 0,5 C 96 % 1001,4 hPa 0,0 mm 0,0 km/h (0 Bft) N 360 0,1 C 0,0 km/h (0 Bft)
10.01.2016 05:45 0,8 C 0,6 C 96 % 1001,4 hPa 0,0 mm 0,0 km/h (0 Bft) O-SO 112 0,2 C 0,0 km/h (0 Bft)
10.01.2016 05:50 1,0 C 0,8 C 90 % 1001,4 hPa 0,0 mm 0,0 km/h (0 Bft) O-NO 67 -0,5 C 0,0 km/h (0 Bft)
10.01.2016 05:55 1,2 C 0,8 C 96 % 1001,4 hPa 0,0 mm 0,0 km/h (0 Bft) O-SO 112 0,6 C 0,0 km/h (0 Bft)
10.01.2016 06:00 0,9 C 0,6 C 96 % 1001,1 hPa 0,0 mm 0,0 km/h (0 Bft) W 270 0,3 C 0,0 km/h (0 Bft)
10.01.2016 06:05 0,9 C 0,6 C 96 % 1001,1 hPa 0,0 mm 0,3 km/h (0 Bft) W-NW 292 0,3 C 0,0 km/h (0 Bft)
10.01.2016 06:10 0,8 C 0,6 C 96 % 1001,1 hPa 0,0 mm 0,3 km/h (0 Bft) O-NO 67 0,2 C 0,0 km/h (0 Bft)
10.01.2016 06:15 0,5 C 0,4 C 96 % 1001,1 hPa 0,0 mm 0,0 km/h (0 Bft) NW 315 -0,1 C 0,0 km/h (0 Bft)
10.01.2016 06:20 0,5 C 0,3 C 96 % 1001,1 hPa 0,0 mm 0,0 km/h (0 Bft) NW 315 -0,1 C 0,0 km/h (0 Bft)
10.01.2016 06:25 0,4 C 0,2 C 96 % 1001,1 hPa 0,0 mm 0,0 km/h (0 Bft) NW 315 -0,2 C 0,0 km/h (0 Bft)
10.01.2016 06:30 0,4 C 0,2 C 96 % 1001,1 hPa 0,0 mm 0,0 km/h (0 Bft) W 270 -0,2 C 0,0 km/h (0 Bft)
10.01.2016 06:35 0,6 C 0,3 C 96 % 1001,1 hPa 0,0 mm 0,0 km/h (0 Bft) NW 315 0,0 C 0,0 km/h (0 Bft)
10.01.2016 06:40 0,6 C 0,4 C 96 % 1000,8 hPa 0,0 mm 0,0 km/h (0 Bft) W 270 0,0 C 0,0 km/h (0 Bft)
10.01.2016 06:45 0,9 C 0,6 C 96 % 1000,8 hPa 0,0 mm 0,0 km/h (0 Bft) W-NW 292 0,3 C 0,0 km/h (0 Bft)
10.01.2016 06:50 0,9 C 0,7 C 96 % 1000,8 hPa 0,0 mm 0,0 km/h (0 Bft) NW 315 0,3 C 0,0 km/h (0 Bft)
10.01.2016 06:55 0,7 C 0,6 C 96 % 1000,8 hPa 0,0 mm 0,0 km/h (0 Bft) NW 315 0,1 C 0,0 km/h (0 Bft)
10.01.2016 07:00 0,7 C 0,6 C 96 % 1000,8 hPa 0,0 mm 0,0 km/h (0 Bft) NW 315 0,1 C 0,0 km/h (0 Bft)
10.01.2016 07:05 0,8 C 0,6 C 96 % 1000,8 hPa 0,0 mm 0,0 km/h (0 Bft) S 180 0,2 C 0,0 km/h (0 Bft)
10.01.2016 07:10 1,1 C 0,9 C 91 % 1000,8 hPa 0,0 mm 0,0 km/h (0 Bft) SO 135 -0,2 C 0,0 km/h (0 Bft)
10.01.2016 07:15 1,4 C 1,1 C 96 % 1000,8 hPa 0,0 mm 0,0 km/h (0 Bft) SW 225 0,8 C 0,0 km/h (0 Bft)
10.01.2016 07:20 1,4 C 1,2 C 96 % 1001,0 hPa 0,0 mm 0,0 km/h (0 Bft) SO 135 0,8 C 0,0 km/h (0 Bft)
10.01.2016 07:25 1,5 C 1,3 C 96 % 1001,0 hPa 0,0 mm 0,0 km/h (0 Bft) O-SO 112 0,9 C 0,0 km/h (0 Bft)
10.01.2016 07:30 1,3 C 1,2 C 96 % 1001,0 hPa 0,0 mm 0,3 km/h (0 Bft) N-NW 337 0,7 C 0,0 km/h (0 Bft)
10.01.2016 07:35 0,9 C 0,9 C 96 % 1001,0 hPa 0,0 mm 0,3 km/h (0 Bft) N-NW 337 0,3 C 0,0 km/h (0 Bft)
10.01.2016 07:40 1,1 C 1,0 C 96 % 1001,2 hPa 0,0 mm 0,3 km/h (0 Bft) SW 225 0,5 C 0,0 km/h (0 Bft)
10.01.2016 07:45 1,0 C 0,9 C 96 % 1001,2 hPa 0,0 mm 0,3 km/h (0 Bft) O-NO 67 0,4 C 0,0 km/h (0 Bft)
10.01.2016 07:50 1,0 C 0,8 C 96 % 1001,2 hPa 0,0 mm 0,0 km/h (0 Bft) N-NO 22 0,4 C 0,0 km/h (0 Bft)
10.01.2016 07:55 1,2 C 0,9 C 96 % 1001,2 hPa 0,0 mm 0,0 km/h (0 Bft) O-NO 67 0,6 C 0,0 km/h (0 Bft)
10.01.2016 08:00 1,5 C 1,1 C 96 % 1001,3 hPa 0,0 mm 0,0 km/h (0 Bft) O-SO 112 0,9 C 0,0 km/h (0 Bft)
10.01.2016 08:05 1,9 C 1,7 C 91 % 1001,3 hPa 0,0 mm 0,5 km/h (0 Bft) O-SO 112 0,6 C 3,4 km/h (1 Bft)
10.01.2016 08:10 1,9 C 1,8 C 91 % 1001,3 hPa 0,0 mm 1,3 km/h (1 Bft) O-NO 67 0,6 C 0,0 km/h (0 Bft)
10.01.2016 08:15 1,8 C 1,6 C 96 % 1001,3 hPa 0,0 mm 1,3 km/h (1 Bft) S 180 1,2 C 0,0 km/h (0 Bft)
10.01.2016 08:20 1,7 C 1,6 C 96 % 1000,2 hPa 0,0 mm 2,1 km/h (1 Bft) W-SW 247 1,1 C 5,7 km/h (1 Bft)
10.01.2016 08:25 1,4 C 1,3 C 96 % 1000,2 hPa 0,0 mm 3,1 km/h (1 Bft) SW 225 0,8 C 12,7 km/h (3 Bft)
10.01.2016 08:30 1,5 C 1,3 C 96 % 1000,2 hPa 0,0 mm 1,6 km/h (1 Bft) O-SO 112 0,9 C 0,0 km/h (0 Bft)
10.01.2016 08:35 1,2 C 1,1 C 96 % 1000,2 hPa 0,0 mm 0,5 km/h (0 Bft) O-NO 67 0,6 C 0,0 km/h (0 Bft)
10.01.2016 08:40 1,2 C 1,1 C 96 % 1000,3 hPa 0,0 mm 0,3 km/h (0 Bft) NW 315 0,6 C 3,1 km/h (1 Bft)
10.01.2016 08:45 1,1 C 1,0 C 96 % 1000,3 hPa 0,0 mm 1,0 km/h (0 Bft) SO 135 0,5 C 0,0 km/h (0 Bft)
10.01.2016 08:50 1,3 C 1,1 C 96 % 1000,3 hPa 0,0 mm 1,3 km/h (1 Bft) S-SO 157 0,7 C 0,0 km/h (0 Bft)
10.01.2016 08:55 1,3 C 1,2 C 96 % 1000,3 hPa 0,0 mm 0,3 km/h (0 Bft) S-SO 157 0,7 C 0,0 km/h (0 Bft)
10.01.2016 09:00 1,3 C 1,2 C 96 % 1001,0 hPa 0,0 mm 0,5 km/h (0 Bft) O-SO 112 0,7 C 0,0 km/h (0 Bft)
10.01.2016 09:05 1,2 C 1,1 C 96 % 1001,0 hPa 0,0 mm 0,3 km/h (0 Bft) SO 135 0,6 C 0,0 km/h (0 Bft)
10.01.2016 09:10 1,2 C 1,1 C 96 % 1001,0 hPa 0,0 mm 0,0 km/h (0 Bft) N-NO 22 0,6 C 0,0 km/h (0 Bft)
10.01.2016 09:15 1,5 C 1,3 C 96 % 1001,0 hPa 0,0 mm 0,0 km/h (0 Bft) W 270 0,9 C 0,0 km/h (0 Bft)
10.01.2016 09:20 1,5 C 1,4 C 96 % 1001,0 hPa 0,0 mm 0,5 km/h (0 Bft) NW 315 0,9 C 6,2 km/h (2 Bft)
10.01.2016 09:25 1,6 C 1,5 C 96 % 1001,0 hPa 0,0 mm 1,3 km/h (1 Bft) SO 135 1,0 C 0,0 km/h (0 Bft)
10.01.2016 09:30 1,5 C 1,5 C 96 % 1001,0 hPa 0,0 mm 1,3 km/h (1 Bft) O 90 0,9 C 0,0 km/h (0 Bft)
10.01.2016 09:35 2,1 C 2,2 C 91 % 1001,0 hPa 0,0 mm 0,3 km/h (0 Bft) W-SW 247 0,8 C 3,9 km/h (1 Bft)
10.01.2016 09:40 2,5 C 2,6 C 96 % 1001,3 hPa 0,0 mm 3,4 km/h (1 Bft) O-SO 112 1,9 C 0,0 km/h (0 Bft)
10.01.2016 09:45 2,0 C 2,5 C 96 % 1001,3 hPa 0,0 mm 2,8 km/h (1 Bft) O-NO 67 1,4 C 14,5 km/h (3 Bft)
10.01.2016 09:50 2,1 C 2,5 C 96 % 1001,3 hPa 0,0 mm 0,8 km/h (0 Bft) N-NO 22 1,5 C 0,0 km/h (0 Bft)
10.01.2016 09:51 2,4 C 2,5 C 96 % 1001,3 hPa 0,0 mm 2,1 km/h (1 Bft) W 270 1,8 C 10,4 km/h (2 Bft)
10.01.2016 09:55 2,4 C 2,5 C 96 % 1001,3 hPa 0,0 mm 2,1 km/h (1 Bft) W 270 1,8 C 10,4 km/h (2 Bft)
10.01.2016 10:00 2,4 C 2,4 C 96 % 1002,2 hPa 0,0 mm 5,2 km/h (1 Bft) O-NO 67 1,8 C 4,7 km/h (1 Bft)
10.01.2016 10:05 2,8 C 2,8 C 96 % 1002,2 hPa 0,0 mm 3,6 km/h (1 Bft) S-SO 157 2,2 C 2,8 km/h (1 Bft)
10.01.2016 10:10 2,7 C 2,9 C 96 % 1002,2 hPa 0,0 mm 4,4 km/h (1 Bft) W 270 2,1 C 7,3 km/h (2 Bft)
10.01.2016 10:15 2,8 C 2,6 C 96 % 1002,2 hPa 0,0 mm 6,2 km/h (2 Bft) W 270 2,2 C 16,3 km/h (3 Bft)
10.01.2016 10:20 2,8 C 2,5 C 96 % 1002,1 hPa 0,0 mm 7,8 km/h (2 Bft) SW 225 2,2 C 7,8 km/h (2 Bft)
10.01.2016 10:25 2,7 C 2,9 C 96 % 1002,1 hPa 0,0 mm 4,7 km/h (1 Bft) SO 135 2,1 C 3,4 km/h (1 Bft)
10.01.2016 10:30 2,8 C 3,0 C 96 % 1002,1 hPa 0,0 mm 4,1 km/h (1 Bft) W-SW 247 2,2 C 2,8 km/h (1 Bft)
10.01.2016 10:35 3,1 C 3,1 C 96 % 1002,1 hPa 0,0 mm 3,9 km/h (1 Bft) W-NW 292 2,5 C 8,5 km/h (2 Bft)
10.01.2016 10:40 3,2 C 3,0 C 96 % 1002,8 hPa 0,0 mm 6,2 km/h (2 Bft) W-SW 247 2,6 C 11,7 km/h (2 Bft)
10.01.2016 10:45 3,4 C 3,0 C 96 % 1002,8 hPa 0,0 mm 9,3 km/h (2 Bft) W 270 2,8 C 19,2 km/h (3 Bft)
10.01.2016 10:50 3,5 C 3,1 C 96 % 1002,8 hPa 0,0 mm 10,1 km/h (2 Bft) S-SW 202 2,9 C 18,9 km/h (3 Bft)
10.01.2016 10:55 3,6 C 3,1 C 96 % 1002,8 hPa 0,0 mm 10,9 km/h (2 Bft) W-SW 247 3,0 C 19,9 km/h (4 Bft)
10.01.2016 11:00 3,6 C 3,2 C 96 % 1003,2 hPa 0,0 mm 10,1 km/h (2 Bft) W 270 3,0 C 16,6 km/h (3 Bft)
10.01.2016 11:05 3,7 C 3,4 C 96 % 1003,2 hPa 0,0 mm 9,1 km/h (2 Bft) S-SO 157 3,1 C 25,9 km/h (4 Bft)
10.01.2016 11:10 3,7 C 3,4 C 96 % 1003,2 hPa 0,0 mm 9,8 km/h (2 Bft) NW 315 3,1 C 9,1 km/h (2 Bft)
10.01.2016 11:15 3,8 C 3,4 C 96 % 1003,2 hPa 0,0 mm 10,1 km/h (2 Bft) W-SW 247 3,2 C 27,7 km/h (4 Bft)
10.01.2016 11:20 3,9 C 3,6 C 96 % 1002,9 hPa 0,0 mm 9,1 km/h (2 Bft) W-NW 292 3,3 C 13,7 km/h (3 Bft)
10.01.2016 11:25 4,0 C 3,6 C 95 % 1002,9 hPa 0,0 mm 10,1 km/h (2 Bft) W-SW 247 3,3 C 6,2 km/h (2 Bft)
10.01.2016 11:30 4,0 C 3,6 C 95 % 1002,9 hPa 0,0 mm 10,4 km/h (2 Bft) SW 225 3,3 C 8,0 km/h (2 Bft)
10.01.2016 11:35 4,1 C 3,7 C 95 % 1002,9 hPa 0,0 mm 10,1 km/h (2 Bft) W-SW 247 3,4 C 14,8 km/h (3 Bft)
10.01.2016 11:40 4,1 C 3,7 C 95 % 1002,8 hPa 0,0 mm 11,1 km/h (2 Bft) W-NW 292 3,4 C 12,2 km/h (2 Bft)
10.01.2016 11:45 4,2 C 3,8 C 94 % 1002,8 hPa 0,0 mm 10,6 km/h (2 Bft) W-SW 247 3,3 C 12,7 km/h (3 Bft)
10.01.2016 11:50 4,2 C 3,9 C 94 % 1002,8 hPa 0,0 mm 9,3 km/h (2 Bft) W 270 3,3 C 13,2 km/h (3 Bft)
10.01.2016 11:55 4,2 C 4,0 C 94 % 1002,8 hPa 0,0 mm 8,0 km/h (2 Bft) NW 315 3,3 C 4,1 km/h (1 Bft)
10.01.2016 12:00 4,2 C 4,2 C 94 % 1002,7 hPa 0,0 mm 6,5 km/h (2 Bft) NW 315 3,3 C 11,4 km/h (2 Bft)
10.01.2016 12:05 4,2 C 4,1 C 94 % 1002,7 hPa 0,0 mm 6,7 km/h (2 Bft) W-SW 247 3,3 C 6,0 km/h (2 Bft)
10.01.2016 12:10 4,3 C 4,0 C 94 % 1002,7 hPa 0,0 mm 8,5 km/h (2 Bft) W-NW 292 3,4 C 17,1 km/h (3 Bft)
10.01.2016 12:15 4,5 C 4,1 C 93 % 1002,7 hPa 0,0 mm 9,3 km/h (2 Bft) W-SW 247 3,5 C 12,9 km/h (3 Bft)
10.01.2016 12:20 4,5 C 4,1 C 93 % 1002,6 hPa 0,0 mm 9,3 km/h (2 Bft) W-SW 247 3,5 C 11,9 km/h (2 Bft)
10.01.2016 12:25 4,6 C 4,5 C 88 % 1002,6 hPa 0,0 mm 7,3 km/h (2 Bft) W 270 2,8 C 11,7 km/h (2 Bft)
10.01.2016 12:30 4,7 C 4,7 C 87 % 1002,6 hPa 0,0 mm 7,0 km/h (2 Bft) W-NW 292 2,7 C 14,2 km/h (3 Bft)
10.01.2016 12:35 4,8 C 4,8 C 87 % 1002,6 hPa 0,0 mm 7,3 km/h (2 Bft) SW 225 2,8 C 7,0 km/h (2 Bft)
10.01.2016 12:40 4,8 C 5,2 C 87 % 1002,3 hPa 0,0 mm 6,0 km/h (2 Bft) NW 315 2,8 C 6,0 km/h (2 Bft)
10.01.2016 12:45 4,9 C 5,7 C 87 % 1002,3 hPa 0,0 mm 4,9 km/h (1 Bft) W 270 2,9 C 11,4 km/h (2 Bft)
10.01.2016 12:50 4,9 C 5,8 C 87 % 1002,3 hPa 0,0 mm 4,7 km/h (1 Bft) SW 225 2,9 C 4,1 km/h (1 Bft)
10.01.2016 12:55 5,0 C 5,8 C 86 % 1002,3 hPa 0,0 mm 5,4 km/h (1 Bft) SW 225 2,9 C 8,8 km/h (2 Bft)
10.01.2016 13:00 5,0 C 5,9 C 86 % 1002,2 hPa 0,0 mm 4,4 km/h (1 Bft) NW 315 2,9 C 0,0 km/h (0 Bft)
10.01.2016 13:05 5,0 C 6,1 C 86 % 1002,2 hPa 0,0 mm 3,1 km/h (1 Bft) W-SW 247 2,9 C 8,8 km/h (2 Bft)
10.01.2016 13:10 5,0 C 6,0 C 86 % 1002,2 hPa 0,0 mm 3,9 km/h (1 Bft) SW 225 2,9 C 8,5 km/h (2 Bft)
10.01.2016 13:15 5,1 C 6,0 C 86 % 1002,2 hPa 0,0 mm 4,4 km/h (1 Bft) W-SW 247 3,0 C 0,0 km/h (0 Bft)
10.01.2016 13:20 5,1 C 6,1 C 86 % 1001,7 hPa 0,0 mm 3,6 km/h (1 Bft) SW 225 3,0 C 3,4 km/h (1 Bft)
10.01.2016 13:25 5,4 C 6,6 C 86 % 1001,7 hPa 0,0 mm 2,8 km/h (1 Bft) W 270 3,3 C 6,0 km/h (2 Bft)
10.01.2016 13:30 5,5 C 7,0 C 85 % 1001,7 hPa 0,0 mm 2,1 km/h (1 Bft) W-SW 247 3,2 C 0,0 km/h (0 Bft)
10.01.2016 13:35 5,4 C 6,8 C 85 % 1001,7 hPa 0,0 mm 3,4 km/h (1 Bft) SW 225 3,1 C 7,8 km/h (2 Bft)
10.01.2016 13:40 5,4 C 6,4 C 85 % 1001,6 hPa 0,0 mm 5,2 km/h (1 Bft) W-SW 247 3,1 C 10,9 km/h (2 Bft)
10.01.2016 13:45 5,4 C 6,2 C 84 % 1001,6 hPa 0,0 mm 5,7 km/h (1 Bft) W-SW 247 2,9 C 4,4 km/h (1 Bft)
10.01.2016 13:50 5,5 C 6,3 C 84 % 1001,6 hPa 0,0 mm 4,1 km/h (1 Bft) SW 225 3,0 C 0,0 km/h (0 Bft)
10.01.2016 13:55 5,5 C 6,3 C 90 % 1001,6 hPa 0,0 mm 2,1 km/h (1 Bft) W-SW 247 4,0 C 0,0 km/h (0 Bft)
10.01.2016 14:00 5,5 C 6,2 C 90 % 1001,5 hPa 0,0 mm 1,0 km/h (0 Bft) SW 225 4,0 C 0,0 km/h (0 Bft)
10.01.2016 14:05 5,3 C 6,0 C 90 % 1001,5 hPa 0,0 mm 0,5 km/h (0 Bft) N-NW 337 3,8 C 0,0 km/h (0 Bft)
10.01.2016 14:10 5,3 C 5,9 C 90 % 1001,5 hPa 0,0 mm 0,3 km/h (0 Bft) S 180 3,8 C 0,0 km/h (0 Bft)
10.01.2016 14:15 5,3 C 5,8 C 90 % 1001,5 hPa 0,0 mm 0,3 km/h (0 Bft) SO 135 3,8 C 0,0 km/h (0 Bft)
10.01.2016 14:20 5,3 C 5,9 C 84 % 1001,2 hPa 0,0 mm 0,0 km/h (0 Bft) O-SO 112 2,8 C 0,0 km/h (0 Bft)
10.01.2016 14:25 5,5 C 6,6 C 84 % 1001,2 hPa 0,0 mm 0,0 km/h (0 Bft) O-NO 67 3,0 C 3,1 km/h (1 Bft)
10.01.2016 14:30 5,7 C 7,0 C 84 % 1001,2 hPa 0,0 mm 0,5 km/h (0 Bft) NO 45 3,2 C 0,0 km/h (0 Bft)
10.01.2016 14:35 5,8 C 7,1 C 83 % 1001,2 hPa 0,0 mm 1,3 km/h (1 Bft) O-SO 112 3,1 C 4,1 km/h (1 Bft)
10.01.2016 14:40 5,8 C 7,1 C 83 % 1000,7 hPa 0,0 mm 1,6 km/h (1 Bft) O-NO 67 3,1 C 7,0 km/h (2 Bft)
10.01.2016 14:45 5,9 C 7,2 C 83 % 1000,7 hPa 0,0 mm 3,6 km/h (1 Bft) NO 45 3,2 C 6,0 km/h (2 Bft)
10.01.2016 14:50 5,9 C 7,1 C 82 % 1000,7 hPa 0,0 mm 4,1 km/h (1 Bft) N-NO 22 3,1 C 8,3 km/h (2 Bft)
10.01.2016 14:55 5,9 C 7,0 C 86 % 1000,7 hPa 0,0 mm 3,6 km/h (1 Bft) NO 45 3,7 C 6,2 km/h (2 Bft)
10.01.2016 15:00 5,7 C 6,5 C 86 % 1001,2 hPa 0,0 mm 4,9 km/h (1 Bft) O-NO 67 3,5 C 6,7 km/h (2 Bft)
10.01.2016 15:05 5,6 C 6,1 C 86 % 1001,2 hPa 0,0 mm 4,4 km/h (1 Bft) O 90 3,4 C 0,0 km/h (0 Bft)
10.01.2016 15:10 5,5 C 6,0 C 85 % 1001,2 hPa 0,0 mm 3,4 km/h (1 Bft) O-NO 67 3,2 C 5,4 km/h (1 Bft)
10.01.2016 15:15 5,5 C 5,9 C 85 % 1001,2 hPa 0,0 mm 3,9 km/h (1 Bft) O-NO 67 3,2 C 7,8 km/h (2 Bft)
10.01.2016 15:20 5,4 C 5,7 C 85 % 1001,1 hPa 0,0 mm 5,4 km/h (1 Bft) O-NO 67 3,1 C 5,4 km/h (1 Bft)
10.01.2016 15:25 5,2 C 5,5 C 86 % 1001,1 hPa 0,0 mm 4,1 km/h (1 Bft) O-NO 67 3,1 C 0,0 km/h (0 Bft)
10.01.2016 15:30 5,0 C 5,3 C 86 % 1001,1 hPa 0,0 mm 2,3 km/h (1 Bft) NW 315 2,9 C 0,0 km/h (0 Bft)
10.01.2016 15:35 4,9 C 5,2 C 86 % 1001,1 hPa 0,0 mm 0,8 km/h (0 Bft) NO 45 2,8 C 0,0 km/h (0 Bft)
10.01.2016 15:40 4,8 C 4,9 C 86 % 1001,2 hPa 0,0 mm 0,3 km/h (0 Bft) NO 45 2,7 C 0,0 km/h (0 Bft)
10.01.2016 15:45 4,7 C 4,8 C 87 % 1001,2 hPa 0,0 mm 0,3 km/h (0 Bft) O-NO 67 2,7 C 0,0 km/h (0 Bft)
10.01.2016 15:50 4,7 C 4,7 C 87 % 1001,2 hPa 0,0 mm 0,0 km/h (0 Bft) O 90 2,7 C 0,0 km/h (0 Bft)
10.01.2016 15:51 4,7 C 4,7 C 87 % 1001,2 hPa 0,0 mm 0,0 km/h (0 Bft) O 90 2,7 C 0,0 km/h (0 Bft)
10.01.2016 15:55 4,7 C 4,7 C 87 % 1001,2 hPa 0,0 mm 0,0 km/h (0 Bft) O 90 2,7 C 0,0 km/h (0 Bft)
10.01.2016 16:00 4,6 C 4,6 C 88 % 1001,1 hPa 0,0 mm 0,0 km/h (0 Bft) O 90 2,8 C 0,0 km/h (0 Bft)
10.01.2016 16:05 4,5 C 4,5 C 88 % 1001,1 hPa 0,0 mm 1,0 km/h (0 Bft) NO 45 2,7 C 6,2 km/h (2 Bft)
10.01.2016 16:10 4,5 C 4,5 C 88 % 1001,1 hPa 0,0 mm 2,1 km/h (1 Bft) O-NO 67 2,7 C 4,1 km/h (1 Bft)
10.01.2016 16:15 4,3 C 4,4 C 88 % 1001,1 hPa 0,0 mm 2,1 km/h (1 Bft) O-NO 67 2,5 C 0,0 km/h (0 Bft)
10.01.2016 16:20 4,1 C 4,2 C 88 % 1000,8 hPa 0,0 mm 0,3 km/h (0 Bft) O-NO 67 2,3 C 0,0 km/h (0 Bft)
10.01.2016 16:25 4,1 C 4,1 C 88 % 1000,8 hPa 0,0 mm 0,0 km/h (0 Bft) O-SO 112 2,3 C 0,0 km/h (0 Bft)
10.01.2016 16:30 4,0 C 4,0 C 88 % 1000,8 hPa 0,0 mm 0,0 km/h (0 Bft) O-SO 112 2,2 C 0,0 km/h (0 Bft)
10.01.2016 16:35 3,9 C 3,8 C 89 % 1000,8 hPa 0,0 mm 0,0 km/h (0 Bft) SO 135 2,3 C 0,0 km/h (0 Bft)
10.01.2016 16:40 3,9 C 3,8 C 89 % 1000,7 hPa 0,0 mm 0,0 km/h (0 Bft) O-SO 112 2,3 C 0,0 km/h (0 Bft)
10.01.2016 16:45 3,8 C 3,7 C 89 % 1000,7 hPa 0,0 mm 0,0 km/h (0 Bft) O-SO 112 2,2 C 0,0 km/h (0 Bft)
10.01.2016 16:50 3,7 C 3,6 C 89 % 1000,7 hPa 0,0 mm 0,0 km/h (0 Bft) O-NO 67 2,1 C 0,0 km/h (0 Bft)
10.01.2016 16:55 3,6 C 3,5 C 89 % 1000,7 hPa 0,0 mm 0,0 km/h (0 Bft) O 90 2,0 C 0,0 km/h (0 Bft)
10.01.2016 17:00 3,6 C 3,5 C 89 % 1000,5 hPa 0,0 mm 0,3 km/h (0 Bft) S-SO 157 2,0 C 0,0 km/h (0 Bft)
10.01.2016 17:05 3,6 C 3,5 C 89 % 1000,5 hPa 0,0 mm 0,3 km/h (0 Bft) O 90 2,0 C 0,0 km/h (0 Bft)
10.01.2016 17:10 3,4 C 3,3 C 89 % 1000,5 hPa 0,0 mm 0,0 km/h (0 Bft) SO 135 1,8 C 0,0 km/h (0 Bft)
10.01.2016 17:15 3,4 C 3,3 C 89 % 1000,5 hPa 0,0 mm 0,0 km/h (0 Bft) O-SO 112 1,8 C 0,0 km/h (0 Bft)
10.01.2016 17:20 3,5 C 3,4 C 89 % 1000,4 hPa 0,0 mm 0,3 km/h (0 Bft) SO 135 1,9 C 3,9 km/h (1 Bft)
10.01.2016 17:25 3,6 C 3,5 C 89 % 1000,4 hPa 0,0 mm 0,3 km/h (0 Bft) O 90 2,0 C 0,0 km/h (0 Bft)
10.01.2016 17:30 3,6 C 3,5 C 90 % 1000,4 hPa 0,0 mm 0,5 km/h (0 Bft) O-SO 112 2,1 C 4,4 km/h (1 Bft)
10.01.2016 17:35 3,5 C 3,4 C 90 % 1000,4 hPa 0,0 mm 0,3 km/h (0 Bft) O-NO 67 2,0 C 0,0 km/h (0 Bft)
10.01.2016 17:40 3,5 C 3,4 C 90 % 1000,0 hPa 0,0 mm 0,5 km/h (0 Bft) O-SO 112 2,0 C 0,0 km/h (0 Bft)
10.01.2016 17:45 3,4 C 3,4 C 90 % 1000,0 hPa 0,0 mm 0,5 km/h (0 Bft) S-SO 157 1,9 C 0,0 km/h (0 Bft)
10.01.2016 17:50 3,4 C 3,4 C 90 % 1000,0 hPa 0,0 mm 0,3 km/h (0 Bft) O-NO 67 1,9 C 2,8 km/h (1 Bft)
10.01.2016 17:55 3,5 C 3,4 C 90 % 1000,0 hPa 0,0 mm 0,0 km/h (0 Bft) O-NO 67 2,0 C 0,0 km/h (0 Bft)
10.01.2016 18:00 3,5 C 3,4 C 90 % 999,4 hPa 0,0 mm 0,3 km/h (0 Bft) O-SO 112 2,0 C 0,0 km/h (0 Bft)
10.01.2016 18:05 3,5 C 3,5 C 90 % 999,4 hPa 0,0 mm 0,5 km/h (0 Bft) O-SO 112 2,0 C 0,0 km/h (0 Bft)
10.01.2016 18:10 3,5 C 3,5 C 90 % 999,4 hPa 0,0 mm 0,5 km/h (0 Bft) O 90 2,0 C 0,0 km/h (0 Bft)
10.01.2016 18:15 3,4 C 3,4 C 90 % 999,4 hPa 0,0 mm 0,5 km/h (0 Bft) N-NO 22 1,9 C 0,0 km/h (0 Bft)
10.01.2016 18:20 3,6 C 3,5 C 90 % 999,2 hPa 0,0 mm 0,5 km/h (0 Bft) W-NW 292 2,1 C 0,0 km/h (0 Bft)
10.01.2016 18:25 3,6 C 3,6 C 90 % 999,2 hPa 0,0 mm 0,5 km/h (0 Bft) W-NW 292 2,1 C 0,0 km/h (0 Bft)
10.01.2016 18:30 3,6 C 3,6 C 90 % 999,2 hPa 0,0 mm 0,5 km/h (0 Bft) O-NO 67 2,1 C 3,6 km/h (1 Bft)
10.01.2016 18:35 3,6 C 3,6 C 90 % 999,2 hPa 0,0 mm 1,3 km/h (1 Bft) N-NW 337 2,1 C 5,2 km/h (1 Bft)
10.01.2016 18:40 3,7 C 3,7 C 90 % 999,6 hPa 0,0 mm 1,8 km/h (1 Bft) SO 135 2,2 C 0,0 km/h (0 Bft)
10.01.2016 18:45 3,7 C 3,7 C 90 % 999,6 hPa 0,0 mm 0,8 km/h (0 Bft) O-SO 112 2,2 C 0,0 km/h (0 Bft)
10.01.2016 18:50 3,6 C 3,6 C 90 % 999,6 hPa 0,0 mm 0,3 km/h (0 Bft) O-NO 67 2,1 C 0,0 km/h (0 Bft)
10.01.2016 18:55 3,4 C 3,5 C 90 % 999,6 hPa 0,0 mm 0,0 km/h (0 Bft) N-NW 337 1,9 C 0,0 km/h (0 Bft)
10.01.2016 19:00 3,4 C 3,5 C 90 % 999,8 hPa 0,0 mm 0,8 km/h (0 Bft) W-SW 247 1,9 C 0,0 km/h (0 Bft)
10.01.2016 19:05 3,5 C 3,5 C 90 % 999,8 hPa 0,0 mm 0,8 km/h (0 Bft) S 180 2,0 C 0,0 km/h (0 Bft)
10.01.2016 19:10 3,7 C 3,6 C 90 % 999,8 hPa 0,0 mm 0,3 km/h (0 Bft) SO 135 2,2 C 0,0 km/h (0 Bft)
10.01.2016 19:15 3,6 C 3,5 C 90 % 999,8 hPa 0,0 mm 0,3 km/h (0 Bft) W-NW 292 2,1 C 0,0 km/h (0 Bft)
10.01.2016 19:20 3,4 C 3,3 C 90 % 1000,3 hPa 0,7 mm 1,3 km/h (1 Bft) W 270 1,9 C 3,9 km/h (1 Bft)
10.01.2016 19:25 3,5 C 3,3 C 90 % 1000,3 hPa 0,0 mm 4,9 km/h (1 Bft) W-SW 247 2,0 C 9,3 km/h (2 Bft)
10.01.2016 19:30 3,5 C 3,2 C 90 % 1000,3 hPa 0,0 mm 6,0 km/h (2 Bft) W-SW 247 2,0 C 4,9 km/h (1 Bft)
10.01.2016 19:35 3,6 C 3,2 C 90 % 1000,3 hPa 0,0 mm 6,5 km/h (2 Bft) SW 225 2,1 C 5,4 km/h (1 Bft)
10.01.2016 19:40 3,6 C 3,2 C 90 % 1000,8 hPa 0,0 mm 6,2 km/h (2 Bft) SW 225 2,1 C 2,8 km/h (1 Bft)
10.01.2016 19:45 3,5 C 3,3 C 90 % 1000,8 hPa 0,0 mm 5,2 km/h (1 Bft) W-SW 247 2,0 C 5,2 km/h (1 Bft)
10.01.2016 19:50 3,5 C 3,4 C 90 % 1000,8 hPa 0,7 mm 2,8 km/h (1 Bft) S 180 2,0 C 0,0 km/h (0 Bft)
10.01.2016 19:55 3,4 C 3,3 C 90 % 1000,8 hPa 0,0 mm 1,3 km/h (1 Bft) W-SW 247 1,9 C 4,9 km/h (1 Bft)
10.01.2016 20:00 3,4 C 3,3 C 91 % 1001,0 hPa 0,0 mm 0,5 km/h (0 Bft) S-SW 202 2,1 C 0,0 km/h (0 Bft)
10.01.2016 20:05 3,4 C 3,3 C 91 % 1001,0 hPa 0,7 mm 0,5 km/h (0 Bft) S-SO 157 2,1 C 0,0 km/h (0 Bft)
10.01.2016 20:10 3,4 C 3,3 C 91 % 1001,0 hPa 0,0 mm 0,0 km/h (0 Bft) SW 225 2,1 C 0,0 km/h (0 Bft)
10.01.2016 20:15 3,4 C 3,3 C 91 % 1001,0 hPa 0,0 mm 1,0 km/h (0 Bft) W-SW 247 2,1 C 3,6 km/h (1 Bft)
10.01.2016 20:20 3,4 C 3,3 C 91 % 1001,0 hPa 0,0 mm 1,3 km/h (1 Bft) S-SW 202 2,1 C 0,0 km/h (0 Bft)
10.01.2016 20:25 3,3 C 3,2 C 91 % 1001,0 hPa 0,0 mm 1,0 km/h (0 Bft) SO 135 2,0 C 0,0 km/h (0 Bft)
10.01.2016 20:30 3,3 C 3,2 C 92 % 1001,0 hPa 0,0 mm 1,3 km/h (1 Bft) N 360 2,1 C 0,0 km/h (0 Bft)
10.01.2016 20:35 3,4 C 3,3 C 92 % 1001,0 hPa 0,0 mm 1,8 km/h (1 Bft) O-SO 112 2,2 C 4,4 km/h (1 Bft)
10.01.2016 20:40 3,3 C 3,2 C 92 % 1000,4 hPa 0,0 mm 2,6 km/h (1 Bft) S-SO 157 2,1 C 0,0 km/h (0 Bft)
10.01.2016 20:45 3,1 C 3,0 C 92 % 1000,4 hPa 0,0 mm 1,3 km/h (1 Bft) W 270 1,9 C 0,0 km/h (0 Bft)
10.01.2016 20:50 3,1 C 3,0 C 92 % 1000,4 hPa 0,0 mm 0,0 km/h (0 Bft) S 180 1,9 C 0,0 km/h (0 Bft)
10.01.2016 20:55 3,1 C 3,0 C 92 % 1000,4 hPa 0,0 mm 0,0 km/h (0 Bft) O-SO 112 1,9 C 0,0 km/h (0 Bft)
10.01.2016 21:00 3,1 C 3,0 C 92 % 1000,4 hPa 0,0 mm 0,0 km/h (0 Bft) O-NO 67 1,9 C 0,0 km/h (0 Bft)
10.01.2016 21:05 3,0 C 2,9 C 92 % 1000,4 hPa 0,0 mm 0,5 km/h (0 Bft) SW 225 1,8 C 0,0 km/h (0 Bft)
10.01.2016 21:10 2,8 C 2,7 C 93 % 1000,4 hPa 0,0 mm 0,5 km/h (0 Bft) W 270 1,8 C 0,0 km/h (0 Bft)
10.01.2016 21:15 2,8 C 2,7 C 93 % 1000,4 hPa 0,0 mm 0,8 km/h (0 Bft) NW 315 1,8 C 0,0 km/h (0 Bft)
10.01.2016 21:20 2,8 C 2,7 C 93 % 1000,4 hPa 0,0 mm 1,0 km/h (0 Bft) O-NO 67 1,8 C 0,0 km/h (0 Bft)
10.01.2016 21:25 2,8 C 2,7 C 93 % 1000,4 hPa 0,0 mm 1,0 km/h (0 Bft) W 270 1,8 C 0,0 km/h (0 Bft)
10.01.2016 21:30 2,9 C 2,7 C 93 % 1000,4 hPa 0,0 mm 0,3 km/h (0 Bft) O-NO 67 1,9 C 0,0 km/h (0 Bft)
10.01.2016 21:35 2,8 C 2,7 C 93 % 1000,4 hPa 0,0 mm 0,3 km/h (0 Bft) O-NO 67 1,8 C 0,0 km/h (0 Bft)
10.01.2016 21:40 2,7 C 2,6 C 93 % 1000,7 hPa 0,0 mm 0,3 km/h (0 Bft) SW 225 1,7 C 3,1 km/h (1 Bft)
10.01.2016 21:45 2,8 C 2,7 C 93 % 1000,7 hPa 0,0 mm 0,8 km/h (0 Bft) W-NW 292 1,8 C 0,0 km/h (0 Bft)
10.01.2016 21:50 2,8 C 2,7 C 93 % 1000,7 hPa 0,0 mm 0,8 km/h (0 Bft) W-SW 247 1,8 C 0,0 km/h (0 Bft)
10.01.2016 21:55 2,9 C 2,8 C 93 % 1000,7 hPa 0,0 mm 1,8 km/h (1 Bft) SW 225 1,9 C 7,3 km/h (2 Bft)
10.01.2016 21:56 3,0 C 2,9 C 92 % 1001,0 hPa 0,0 mm 3,6 km/h (1 Bft) W-SW 247 1,8 C 4,9 km/h (1 Bft)
10.01.2016 21:57 3,0 C 2,9 C 92 % 1001,0 hPa 0,0 mm 3,6 km/h (1 Bft) W-SW 247 1,8 C 4,9 km/h (1 Bft)
10.01.2016 22:00 3,0 C 2,9 C 92 % 1001,0 hPa 0,0 mm 3,6 km/h (1 Bft) W-SW 247 1,8 C 4,9 km/h (1 Bft)
10.01.2016 22:05 2,9 C 2,8 C 93 % 1001,0 hPa 0,0 mm 1,8 km/h (1 Bft) W-SW 247 1,9 C 3,1 km/h (1 Bft)
10.01.2016 22:10 3,0 C 2,9 C 92 % 1001,0 hPa 0,0 mm 1,6 km/h (1 Bft) S-SW 202 1,8 C 7,5 km/h (2 Bft)
10.01.2016 22:15 3,1 C 2,9 C 93 % 1001,0 hPa 0,0 mm 2,1 km/h (1 Bft) S-SW 202 2,1 C 5,2 km/h (1 Bft)
10.01.2016 22:20 3,0 C 2,8 C 93 % 1000,7 hPa 0,0 mm 3,9 km/h (1 Bft) W 270 2,0 C 3,1 km/h (1 Bft)
10.01.2016 22:25 2,9 C 2,7 C 94 % 1000,7 hPa 0,7 mm 2,3 km/h (1 Bft) W-SW 247 2,0 C 3,1 km/h (1 Bft)
10.01.2016 22:30 2,8 C 2,7 C 94 % 1000,7 hPa 0,0 mm 1,8 km/h (1 Bft) W-SW 247 1,9 C 3,6 km/h (1 Bft)
10.01.2016 22:35 2,9 C 2,7 C 94 % 1000,7 hPa 0,0 mm 2,6 km/h (1 Bft) S-SW 202 2,0 C 5,2 km/h (1 Bft)
10.01.2016 22:40 3,0 C 2,8 C 93 % 1000,6 hPa 0,0 mm 2,8 km/h (1 Bft) SW 225 2,0 C 4,4 km/h (1 Bft)
10.01.2016 22:45 3,0 C 2,8 C 93 % 1000,6 hPa 0,0 mm 3,6 km/h (1 Bft) W-SW 247 2,0 C 10,9 km/h (2 Bft)
10.01.2016 22:50 3,2 C 3,0 C 93 % 1000,6 hPa 0,0 mm 4,9 km/h (1 Bft) O 90 2,2 C 14,5 km/h (3 Bft)
10.01.2016 22:55 3,4 C 3,1 C 93 % 1000,6 hPa 0,0 mm 5,2 km/h (1 Bft) W-SW 247 2,4 C 9,3 km/h (2 Bft)
10.01.2016 23:00 3,5 C 3,1 C 93 % 1000,6 hPa 0,0 mm 6,0 km/h (2 Bft) W-NW 292 2,5 C 8,8 km/h (2 Bft)
10.01.2016 23:05 3,6 C 3,1 C 93 % 1000,6 hPa 0,0 mm 7,3 km/h (2 Bft) W 270 2,6 C 11,1 km/h (2 Bft)
10.01.2016 23:10 3,7 C 3,0 C 93 % 1000,6 hPa 0,0 mm 9,1 km/h (2 Bft) W-SW 247 2,7 C 21,8 km/h (4 Bft)
10.01.2016 23:15 3,8 C 3,1 C 93 % 1000,6 hPa 0,0 mm 9,1 km/h (2 Bft) W-SW 247 2,8 C 11,1 km/h (2 Bft)
10.01.2016 23:20 3,8 C 2,9 C 93 % 1000,7 hPa 0,0 mm 11,9 km/h (2 Bft) W 270 2,8 C 14,5 km/h (3 Bft)
10.01.2016 23:25 3,7 C 2,9 C 92 % 1000,7 hPa 0,0 mm 11,1 km/h (2 Bft) W-SW 247 2,5 C 36,5 km/h (5 Bft)
10.01.2016 23:30 3,7 C 3,1 C 92 % 1000,7 hPa 0,0 mm 8,5 km/h (2 Bft) W-SW 247 2,5 C 8,8 km/h (2 Bft)
10.01.2016 23:35 3,7 C 3,1 C 92 % 1000,7 hPa 0,7 mm 8,3 km/h (2 Bft) W-NW 292 2,5 C 11,1 km/h (2 Bft)
10.01.2016 23:40 3,6 C 3,2 C 92 % 1001,0 hPa 0,0 mm 6,7 km/h (2 Bft) W-NW 292 2,4 C 6,2 km/h (2 Bft)
10.01.2016 23:45 3,6 C 3,4 C 92 % 1001,0 hPa 0,0 mm 4,7 km/h (1 Bft) S-SW 202 2,4 C 2,6 km/h (1 Bft)
10.01.2016 23:50 3,6 C 3,4 C 92 % 1001,0 hPa 0,0 mm 4,4 km/h (1 Bft) W-NW 292 2,4 C 5,4 km/h (1 Bft)
10.01.2016 23:55 3,5 C 3,4 C 92 % 1001,0 hPa 0,0 mm 3,9 km/h (1 Bft) W-SW 247 2,3 C 4,1 km/h (1 Bft)
_ Min-Zeit 03:05 03:10 14:50 18:35 - 21:00 - - 03:05 21:50
Minimum _ 0,1 C -0,3 C 82 % 999,2 hPa - 0,0 km/h (0 Bft) - - -0,5 C 0,0 km/h (0 Bft)
_ Max-Zeit 14:55 14:45 11:20 00:35 23:35 23:20 - - 14:00 23:25
Maximum _ 5,9 C 7,2 C 96 % 1003,3 hPa 0,7 mm 11,9 km/h
W (2 Bft)
- - 4,0 C 36,5 km/h
W-SW (5 Bft)
Durchschnitt _ 2,8 C 2,8 C 93 % 1001,4 hPa #3,4 mm 2,2 km/h (1 Bft) W-SW - 1,7 C 3,2 km/h (1 Bft)